XNO87R EGKK-EHAM

Flight info

Callsign XNO87R
Flight time 0h 40m
Altitude 29000
Route FRANE M604 GASBA M197 REDFA
Aircraft A320/M-SDE3FGHIRWY/LB1

Departure

Time 2026-05-06 17:06
Airport London Gatwick Airport (EGKK)

Arrival

Time 2026-05-06 17:46
Airport Amsterdam Airport Schiphol (EHAM)
Time Latitude Longitude Altitude Speed Heading
2026-05-06 16:38 51.15308 -0.18000 205 ft 0 kts 348°
2026-05-06 16:55 51.15289 -0.17993 212 ft 4 kts 348°
2026-05-06 16:55 51.15263 -0.17984 211 ft 4 kts 348°
2026-05-06 16:55 51.15240 -0.17976 216 ft 4 kts 333°
2026-05-06 16:55 51.15227 -0.17951 210 ft 4 kts 253°
2026-05-06 16:56 51.15238 -0.17913 215 ft 4 kts 248°
2026-05-06 16:56 51.15241 -0.17899 215 ft 0 kts 256°
2026-05-06 16:59 51.15241 -0.17904 216 ft 2 kts 256°
2026-05-06 16:59 51.15229 -0.17977 210 ft 13 kts 255°
2026-05-06 17:00 51.15203 -0.18142 205 ft 17 kts 256°
2026-05-06 17:00 51.15183 -0.18336 210 ft 19 kts 261°
2026-05-06 17:00 51.15155 -0.18549 214 ft 19 kts 257°
2026-05-06 17:00 51.15125 -0.18772 209 ft 22 kts 259°
2026-05-06 17:01 51.15095 -0.18987 207 ft 19 kts 257°
2026-05-06 17:01 51.15065 -0.19201 211 ft 21 kts 258°
2026-05-06 17:01 51.15033 -0.19442 205 ft 23 kts 257°
2026-05-06 17:01 51.14999 -0.19680 212 ft 19 kts 257°
2026-05-06 17:02 51.14968 -0.19898 213 ft 22 kts 257°
2026-05-06 17:02 51.14938 -0.20124 214 ft 20 kts 257°
2026-05-06 17:02 51.14907 -0.20350 210 ft 22 kts 257°
2026-05-06 17:02 51.14878 -0.20557 208 ft 19 kts 258°
2026-05-06 17:03 51.14849 -0.20774 205 ft 21 kts 257°
2026-05-06 17:03 51.14818 -0.20988 208 ft 12 kts 257°
2026-05-06 17:03 51.14798 -0.21119 213 ft 10 kts 255°
2026-05-06 17:03 51.14779 -0.21238 209 ft 12 kts 255°
2026-05-06 17:04 51.14755 -0.21367 214 ft 11 kts 243°
2026-05-06 17:04 51.14684 -0.21383 213 ft 12 kts 153°
2026-05-06 17:04 51.14602 -0.21323 210 ft 14 kts 163°
2026-05-06 17:04 51.14526 -0.21226 210 ft 15 kts 113°
2026-05-06 17:05 51.14539 -0.21052 212 ft 18 kts 77°
2026-05-06 17:05 51.14602 -0.20594 212 ft 76 kts 77°
2026-05-06 17:05 51.14758 -0.19461 215 ft 130 kts 77°
2026-05-06 17:05 51.14959 -0.17890 537 ft 147 kts 76°
2026-05-06 17:06 51.15174 -0.16319 1336 ft 144 kts 77°
2026-05-06 17:06 51.15389 -0.14766 2016 ft 146 kts 76°
2026-05-06 17:06 51.15627 -0.13072 2390 ft 166 kts 76°
2026-05-06 17:06 51.15889 -0.11168 2710 ft 186 kts 75°
2026-05-06 17:07 51.16188 -0.09022 3053 ft 211 kts 75°
2026-05-06 17:07 51.16527 -0.06600 3521 ft 236 kts 75°
2026-05-06 17:07 51.16871 -0.03928 4108 ft 255 kts 82°
2026-05-06 17:07 51.16872 -0.01033 4780 ft 266 kts 89°
2026-05-06 17:08 51.16818 0.01927 4972 ft 268 kts 89°
2026-05-06 17:08 51.16778 0.03893 4999 ft 268 kts 89°
2026-05-06 17:08 51.16716 0.06859 5005 ft 268 kts 89°
2026-05-06 17:08 51.16655 0.09823 5033 ft 267 kts 89°
2026-05-06 17:09 51.16577 0.13738 5028 ft 267 kts 89°
2026-05-06 17:09 51.16540 0.15732 5028 ft 267 kts 88°
2026-05-06 17:09 51.16520 0.19643 5030 ft 266 kts 87°
2026-05-06 17:09 51.16531 0.22591 5032 ft 266 kts 86°
2026-05-06 17:10 51.16542 0.24582 5033 ft 266 kts 87°
2026-05-06 17:10 51.16557 0.27541 5177 ft 270 kts 87°
2026-05-06 17:10 51.16570 0.30522 6174 ft 270 kts 87°
2026-05-06 17:10 51.16579 0.33542 7066 ft 274 kts 87°
2026-05-06 17:11 51.16586 0.36602 7939 ft 279 kts 88°
2026-05-06 17:11 51.16589 0.39723 8801 ft 284 kts 88°
2026-05-06 17:11 51.16590 0.42890 9657 ft 288 kts 88°
2026-05-06 17:11 51.16590 0.46112 10445 ft 293 kts 89°
2026-05-06 17:12 51.16725 0.49359 10855 ft 294 kts 76°
2026-05-06 17:12 51.17509 0.52338 10977 ft 292 kts 54°
2026-05-06 17:12 51.18893 0.54661 10996 ft 289 kts 34°
2026-05-06 17:12 51.20660 0.56066 11016 ft 289 kts 15°
2026-05-06 17:13 51.22636 0.56796 11636 ft 293 kts 12°
2026-05-06 17:13 51.24630 0.57535 12466 ft 296 kts 13°
2026-05-06 17:13 51.26646 0.58292 13210 ft 299 kts 13°
2026-05-06 17:13 51.28688 0.59062 13940 ft 303 kts 13°
2026-05-06 17:14 51.30752 0.59841 14615 ft 307 kts 13°
2026-05-06 17:14 51.32843 0.60627 15296 ft 309 kts 13°
2026-05-06 17:14 51.34947 0.61417 15980 ft 312 kts 13°
2026-05-06 17:14 51.37070 0.62214 16670 ft 315 kts 13°
2026-05-06 17:15 51.39210 0.63018 17308 ft 320 kts 13°
2026-05-06 17:15 51.41445 0.63859 17463 ft 340 kts 13°
2026-05-06 17:15 51.43808 0.64755 17604 ft 358 kts 13°
2026-05-06 17:15 51.46287 0.65698 17749 ft 375 kts 13°
2026-05-06 17:16 51.48880 0.66684 17887 ft 391 kts 13°
2026-05-06 17:16 51.51563 0.67705 18246 ft 400 kts 13°
2026-05-06 17:16 51.54282 0.68744 18709 ft 404 kts 13°
2026-05-06 17:16 51.57029 0.69797 19215 ft 408 kts 13°
2026-05-06 17:17 51.59802 0.70860 19711 ft 412 kts 13°
2026-05-06 17:17 51.62601 0.71930 20205 ft 415 kts 13°
2026-05-06 17:17 51.65423 0.73007 20683 ft 419 kts 12°
2026-05-06 17:17 51.68273 0.74087 21136 ft 422 kts 12°
2026-05-06 17:18 51.71148 0.75175 21576 ft 426 kts 12°
2026-05-06 17:18 51.74044 0.76273 22012 ft 429 kts 12°
2026-05-06 17:18 51.76965 0.77369 22426 ft 432 kts 11°
2026-05-06 17:18 51.79933 0.78234 22827 ft 436 kts 12°
2026-05-06 17:19 51.82716 0.80021 23212 ft 441 kts 32°
2026-05-06 17:19 51.84973 0.83386 23561 ft 446 kts 53°
2026-05-06 17:19 51.86337 0.87886 23886 ft 449 kts 75°
2026-05-06 17:19 51.86677 0.92894 24227 ft 450 kts 91°
2026-05-06 17:20 51.86576 0.97971 24593 ft 452 kts 91°
2026-05-06 17:20 51.86844 1.03053 24956 ft 455 kts 82°
2026-05-06 17:20 51.87499 1.08069 25332 ft 457 kts 76°
2026-05-06 17:20 51.88429 1.13006 25704 ft 460 kts 72°
2026-05-06 17:21 51.89506 1.17892 26050 ft 462 kts 70°
2026-05-06 17:21 51.90617 1.22794 26402 ft 465 kts 71°
2026-05-06 17:21 51.91691 1.27742 26741 ft 467 kts 72°
2026-05-06 17:21 51.92704 1.32754 27093 ft 469 kts 73°
2026-05-06 17:22 51.93659 1.37802 27584 ft 468 kts 74°
2026-05-06 17:22 51.94574 1.42851 28102 ft 467 kts 75°
2026-05-06 17:22 51.95470 1.47902 28613 ft 466 kts 75°
2026-05-06 17:22 51.96364 1.52945 28938 ft 466 kts 75°
2026-05-06 17:23 51.97270 1.58011 28979 ft 469 kts 75°
2026-05-06 17:23 51.99118 1.68192 28973 ft 471 kts 75°
2026-05-06 17:24 52.00845 1.78449 28974 ft 471 kts 77°
2026-05-06 17:24 52.02403 1.88781 28973 ft 471 kts 78°
2026-05-06 17:25 52.04073 1.99047 28964 ft 469 kts 68°
2026-05-06 17:25 52.05716 2.03597 28965 ft 468 kts 51°
2026-05-06 17:25 52.08077 2.07212 28962 ft 467 kts 35°
2026-05-06 17:26 52.13535 2.12942 28958 ft 467 kts 32°
2026-05-06 17:26 52.16274 2.15794 28498 ft 466 kts 34°
2026-05-06 17:26 52.18677 2.19348 27395 ft 470 kts 51°
2026-05-06 17:26 52.20386 2.23884 26317 ft 472 kts 68°
2026-05-06 17:27 52.21521 2.28920 25185 ft 475 kts 72°
2026-05-06 17:27 52.22586 2.34045 24043 ft 479 kts 72°
2026-05-06 17:27 52.23649 2.39215 22963 ft 480 kts 72°
2026-05-06 17:27 52.24700 2.44348 22087 ft 473 kts 72°
2026-05-06 17:28 52.25745 2.49404 21553 ft 470 kts 71°
2026-05-06 17:28 52.26804 2.54464 21290 ft 471 kts 71°
2026-05-06 17:28 52.27867 2.59512 21030 ft 470 kts 71°
2026-05-06 17:28 52.28927 2.64549 20769 ft 468 kts 71°
2026-05-06 17:29 52.29979 2.69570 20502 ft 467 kts 71°
2026-05-06 17:29 52.31027 2.74589 20267 ft 465 kts 71°
2026-05-06 17:29 52.32050 2.79517 20018 ft 464 kts 71°
2026-05-06 17:29 52.33080 2.84504 19772 ft 462 kts 71°
2026-05-06 17:30 52.34103 2.89473 19523 ft 461 kts 71°
2026-05-06 17:30 52.35124 2.94431 19278 ft 459 kts 71°
2026-05-06 17:30 52.36138 2.99375 19037 ft 458 kts 71°
2026-05-06 17:30 52.37144 3.04303 18796 ft 456 kts 71°
2026-05-06 17:31 52.38145 3.09220 18553 ft 455 kts 71°
2026-05-06 17:31 52.39142 3.14120 18314 ft 453 kts 71°
2026-05-06 17:31 52.40136 3.19006 18053 ft 452 kts 71°
2026-05-06 17:31 52.41121 3.23861 17277 ft 448 kts 71°
2026-05-06 17:32 52.42098 3.28685 16358 ft 443 kts 71°
2026-05-06 17:32 52.43082 3.33441 15469 ft 439 kts 70°
2026-05-06 17:32 52.44061 3.38160 14621 ft 435 kts 71°
2026-05-06 17:32 52.44948 3.42867 13857 ft 430 kts 73°
2026-05-06 17:33 52.45720 3.47583 13069 ft 424 kts 75°
2026-05-06 17:33 52.46398 3.52259 12325 ft 419 kts 76°
2026-05-06 17:33 52.47025 3.56903 11636 ft 413 kts 77°
2026-05-06 17:33 52.47626 3.61448 11235 ft 399 kts 77°
2026-05-06 17:34 52.48203 3.65785 11103 ft 379 kts 77°
2026-05-06 17:34 52.48766 3.69900 10978 ft 361 kts 76°
2026-05-06 17:34 52.49315 3.73823 10856 ft 345 kts 76°
2026-05-06 17:34 52.49848 3.77572 10736 ft 331 kts 76°
2026-05-06 17:35 52.50363 3.81189 10611 ft 319 kts 76°
2026-05-06 17:35 52.50857 3.84676 10486 ft 309 kts 76°
2026-05-06 17:35 52.51335 3.88063 10319 ft 300 kts 76°
2026-05-06 17:36 52.51851 3.94724 10009 ft 294 kts 97°
2026-05-06 17:36 52.51311 3.97950 9940 ft 294 kts 114°
2026-05-06 17:36 52.50230 4.00788 9944 ft 295 kts 131°
2026-05-06 17:36 52.48834 4.03263 9951 ft 295 kts 133°
2026-05-06 17:37 52.47430 4.05717 9808 ft 294 kts 133°
2026-05-06 17:37 52.46030 4.08161 9103 ft 294 kts 133°
2026-05-06 17:37 52.44656 4.10562 8479 ft 291 kts 132°
2026-05-06 17:37 52.43281 4.12964 7879 ft 287 kts 132°
2026-05-06 17:38 52.41921 4.15336 7303 ft 284 kts 131°
2026-05-06 17:38 52.40581 4.17669 6822 ft 279 kts 131°
2026-05-06 17:38 52.39250 4.19986 6471 ft 279 kts 131°
2026-05-06 17:38 52.37926 4.22291 6139 ft 277 kts 131°
2026-05-06 17:39 52.36602 4.24591 5820 ft 276 kts 131°
2026-05-06 17:39 52.35298 4.26855 5473 ft 275 kts 130°
2026-05-06 17:39 52.33992 4.29126 5091 ft 275 kts 130°
2026-05-06 17:39 52.32692 4.31386 4785 ft 272 kts 130°
2026-05-06 17:40 52.31392 4.33642 4455 ft 271 kts 130°
2026-05-06 17:40 52.30090 4.35898 3985 ft 275 kts 130°
2026-05-06 17:40 52.28777 4.38172 3608 ft 275 kts 129°
2026-05-06 17:40 52.27464 4.40436 3253 ft 274 kts 130°
2026-05-06 17:41 52.26165 4.42674 3043 ft 267 kts 130°
2026-05-06 17:41 52.24917 4.44822 2957 ft 254 kts 130°
2026-05-06 17:41 52.23756 4.46831 2855 ft 233 kts 127°
2026-05-06 17:41 52.23057 4.49065 2615 ft 214 kts 98°
2026-05-06 17:42 52.22818 4.51350 2492 ft 196 kts 94°
2026-05-06 17:42 52.22643 4.53495 2259 ft 187 kts 92°
2026-05-06 17:42 52.22494 4.55554 2123 ft 178 kts 86°
2026-05-06 17:42 52.22701 4.57478 2042 ft 167 kts 65°
2026-05-06 17:43 52.23245 4.59043 1997 ft 155 kts 54°
2026-05-06 17:43 52.23810 4.60503 1877 ft 151 kts 55°
2026-05-06 17:43 52.24358 4.61919 1718 ft 148 kts 55°
2026-05-06 17:43 52.24902 4.63328 1508 ft 145 kts 55°
2026-05-06 17:44 52.25427 4.64687 1329 ft 137 kts 55°
2026-05-06 17:44 52.25922 4.65969 1150 ft 131 kts 55°
2026-05-06 17:44 52.26405 4.67222 969 ft 130 kts 54°
2026-05-06 17:44 52.26885 4.68467 791 ft 129 kts 54°
2026-05-06 17:45 52.27371 4.69721 575 ft 132 kts 57°
2026-05-06 17:45 52.27857 4.70981 420 ft 132 kts 57°
2026-05-06 17:45 52.28342 4.72237 238 ft 131 kts 57°
2026-05-06 17:45 52.28827 4.73499 93 ft 132 kts 58°
2026-05-06 17:46 52.29291 4.74732 3 ft 114 kts 55°
2026-05-06 17:46 52.29637 4.75609 -1 ft 67 kts 58°
2026-05-06 17:46 52.29801 4.76039 -4 ft 33 kts 58°
2026-05-06 17:46 52.29916 4.76340 -4 ft 27 kts 56°
2026-05-06 17:47 52.30036 4.76543 -2 ft 14 kts 32°
2026-05-06 17:47 52.30139 4.76632 -1 ft 19 kts 27°
2026-05-06 17:47 52.30194 4.76679 -1 ft 1 kts 28°
2026-05-06 17:47 52.30203 4.76687 -1 ft 0 kts 28°
2026-05-06 17:48 52.30207 4.76690 -1 ft 0 kts 28°
2026-05-06 17:48 52.30208 4.76691 -1 ft 0 kts 28°
2026-05-06 17:49 52.30219 4.76701 -1 ft 6 kts 28°
2026-05-06 17:49 52.30273 4.76742 -1 ft 11 kts 13°
2026-05-06 17:49 52.30336 4.76703 -1 ft 7 kts 301°
2026-05-06 17:49 52.30337 4.76701 -1 ft 0 kts 299°
2026-05-06 17:51 52.30340 4.76674 -1 ft 4 kts 275°
2026-05-06 17:51 52.30328 4.76614 -1 ft 8 kts 239°
2026-05-06 17:51 52.30292 4.76516 -1 ft 13 kts 239°
2026-05-06 17:51 52.30237 4.76373 -1 ft 16 kts 237°
2026-05-06 17:52 52.30171 4.76206 -1 ft 19 kts 238°
2026-05-06 17:52 52.30103 4.76027 -1 ft 18 kts 238°
2026-05-06 17:52 52.30030 4.75840 -1 ft 21 kts 237°
2026-05-06 17:52 52.29949 4.75628 -1 ft 22 kts 238°
2026-05-06 17:53 52.29879 4.75441 -1 ft 17 kts 238°
2026-05-06 17:53 52.29833 4.75288 -1 ft 16 kts 261°
2026-05-06 17:53 52.29881 4.75121 -1 ft 18 kts 310°
2026-05-06 17:53 52.29970 4.74954 -1 ft 21 kts 311°
2026-05-06 17:54 52.30074 4.74766 1 ft 23 kts 312°
2026-05-06 17:54 52.30175 4.74579 10 ft 21 kts 311°
2026-05-06 17:54 52.30275 4.74390 10 ft 23 kts 310°
2026-05-06 17:54 52.30391 4.74209 -1 ft 21 kts 338°
2026-05-06 17:55 52.30540 4.74199 -1 ft 23 kts
2026-05-06 17:55 52.30690 4.74217 -1 ft 20 kts
2026-05-06 17:55 52.30819 4.74228 -1 ft 19 kts
2026-05-06 17:55 52.30965 4.74245 -1 ft 22 kts
2026-05-06 17:56 52.31103 4.74259 -1 ft 20 kts
2026-05-06 17:56 52.31248 4.74271 -1 ft 15 kts
2026-05-06 17:56 52.31352 4.74286 -1 ft 15 kts 18°
2026-05-06 17:56 52.31394 4.74440 -1 ft 16 kts 84°
2026-05-06 17:57 52.31402 4.74640 -1 ft 19 kts 86°
2026-05-06 17:57 52.31408 4.74861 -1 ft 20 kts 88°
2026-05-06 17:57 52.31412 4.75019 -1 ft 21 kts 88°
2026-05-06 17:57 52.31419 4.75249 -1 ft 14 kts 86°
2026-05-06 17:58 52.31421 4.75365 -1 ft 9 kts 98°
2026-05-06 17:58 52.31389 4.75412 -1 ft 11 kts 165°
2026-05-06 17:58 52.31344 4.75421 -1 ft 5 kts 174°
2026-05-06 17:58 52.31294 4.75426 -1 ft 9 kts 179°
2026-05-06 17:59 52.31225 4.75428 -1 ft 11 kts 178°
2026-05-06 17:59 52.31169 4.75433 -1 ft 9 kts 176°
2026-05-06 17:59 52.31111 4.75394 -1 ft 10 kts 229°
2026-05-06 17:59 52.31074 4.75323 -1 ft 7 kts 217°
2026-05-06 18:00 52.31058 4.75306 -1 ft 4 kts 212°
2026-05-06 18:00 52.31027 4.75313 -1 ft 3 kts 153°
2026-05-06 18:00 52.31005 4.75335 -1 ft 0 kts 148°
2026-05-06 18:00 52.30999 4.75341 -1 ft 2 kts 148°
2026-05-06 18:01 52.30995 4.75345 -1 ft 0 kts 148°
2026-05-06 18:01 52.30991 4.75349 -1 ft 1 kts 148°
2026-05-06 18:01 52.30989 4.75351 -1 ft 0 kts 148°